Location: Homer
(59.6430°N, 151.5480°W)
Time: 18:10:39
(UTC-08:00)

Daily predictions for brighter satellites

Satellite Brightness Start Highest point End
(mag) Time Altitude Azimuth Time Altitude Azimuth Time Altitude Azimuth
Cosmos 1844 Rocket 3.1 21:03:07 10° S 21:08:21 40° ESE 21:13:35 10° NE
Cosmos 1833 Rocket 2.8 21:03:23 10° NW 21:09:03 73° NE 21:14:41 10° SE
H-2A R/B 3.6 21:08:09 10° E 21:12:00 20° NE 21:15:47 10° N
ASTRO F (AKARI) 4.2 21:09:02 10° NNE 21:12:13 81° ESE 21:15:21 10° SSW
H-2A R/B 3.1 21:08:58 10° S 21:12:54 73° WSW 21:16:53 10° NNW
Cosmos 2278 Rocket 3.1 21:13:47 10° SSE 21:18:23 26° ESE 21:23:01 10° NE
Cosmos 1898 Rocket 3.7 21:14:36 10° S 21:19:43 52° ESE 21:24:51 10° NE
SAR-Lupe-1 4.0 21:17:29 10° SSE 21:21:04 76° ENE 21:24:41 10° NNW
Lacrosse 5 rocket 1.9 21:18:49 10° W 21:22:45 46° SSW 21:26:28 10° SE
Envisat 3.1 21:17:57 10° SE 21:22:58 62° ENE 21:28:01 10° NNW
Cosmos 1048 Rocket 4.0 21:17:55 10° NNW 21:23:07 80° ENE 21:28:15 10° SE
SL-27 R/B 4.0 21:20:36 10° NW 21:23:54 37° WSW 21:27:14 10° S
Meteor 1-24 Rocket 4.2 21:18:38 10° NNW 21:23:58 64° W 21:29:26 10° S
CZ-4B DEB 2.7 21:21:16 10° SSE 21:24:21 60° ENE 21:27:26 10° N
Cosmos 1900 4.5 21:21:04 10° SSW 21:25:50 54° SE 21:30:41 10° NE
NOSS 2-1 (E) 3.8 21:21:53 10° WSW 21:26:08 88° SSE 21:31:39 10° ENE
Cosmos 1184 Rocket 4.3 21:23:20 10° N 21:26:10 23° ENE 21:28:42 11° ESE
RESURS DK-1 4.1 21:22:35 10° NW 21:26:20 33° WSW 21:30:04 10° S
Meteor 1-29 4.2 21:24:54 10° NE 21:27:42 22° E 21:30:30 10° SSE
COSMOS 2487 2.5 21:24:54 10° NNW 21:28:30 73° ENE 21:32:05 10° SE
Meteor 1-4 Rocket 3.8 21:26:05 10° SE 21:28:45 21° E 21:31:27 10° NE
Cosmos 1934 Rocket 3.9 21:24:43 10° S 21:30:46 68° E 21:36:48 10° NNE
Cosmos 1544 3.9 21:27:43 10° SSE 21:30:57 30° E 21:34:14 10° NNE
Cosmos 1766 3.3 21:29:13 10° S 21:33:01 55° E 21:36:52 10° NNE
Cosmos 2263 Rocket 2.8 21:28:10 10° SW 21:33:46 62° NW 21:39:23 10° NE
NOSS 7 (E) 4.5 21:30:48 10° WSW 21:34:08 89° NNW 21:38:00 10° ENE
Cosmos 2344 4.1 21:29:37 10° S 21:36:46 41° ESE 21:45:13 10° NE
Cosmos 1812 Rocket 3.5 21:32:49 10° S 21:37:13 76° E 21:41:38 10° NNE
GP-B 3.4 21:32:58 10° SSE 21:37:14 47° E 21:41:31 10° N
ALOS 3.9 21:33:36 10° SSW 21:37:58 38° W 21:42:21 10° NNW
Resurs 01 Rocket 2.8 21:34:16 10° S 21:38:32 47° W 21:42:51 10° NNW
Cosmos 2082 Rocket 2.4 21:32:57 10° NW 21:38:42 79° SW 21:44:23 10° SSE
Cosmos 1818 4.4 21:35:35 10° WNW 21:40:49 48° SW 21:46:01 10° SSE
Cosmos 1271 Rocket 4.3 21:38:32 12° SE 21:41:00 19° E 21:43:50 10° NE
Cosmos 2151 4.1 21:38:40 10° N 21:42:21 27° ENE 21:45:12 14° ESE
Cosmos 1766 Rocket 3.6 21:39:12 10° N 21:43:41 70° ENE 21:48:10 10° SSE
Cosmos 1076 Rocket 3.5 21:39:27 10° NNW 21:43:45 87° ENE 21:48:01 10° SSE
Cosmos 858 Rocket 4.5 21:38:56 10° SSW 21:44:10 67° ESE 21:49:27 10° NE
Cosmos 2251 Rocket 3.8 21:43:35 10° NNW 21:48:49 55° NE 21:53:18 14° SE
ERS-1 Rocket 3.1 21:44:08 10° SE 21:49:06 62° ENE 21:54:06 10° NNW
Cosmos 2228 4.4 21:45:45 10° SW 21:49:49 43° WNW 21:53:55 10° N
Cosmos 1821 Rocket 4.2 21:44:43 10° SSW 21:51:08 82° WNW 21:57:31 10° NNE
Cosmos 1937 Rocket 3.5 21:47:07 10° SSW 21:52:20 66° ESE 21:57:38 10° NE
Cosmos 2058 4.1 21:49:06 10° N 21:52:42 27° ENE 21:55:04 17° ESE
Cosmos 2084 Rocket 3.3 21:49:39 10° SW 21:53:30 52° SE 21:57:13 10° ENE
Lacrosse 5 3.2 21:50:31 10° S 21:54:04 19° SE 21:56:02 16° ESE
Cosmos 405 4.0 21:51:19 10° SW 21:54:46 50° WNW 21:58:14 10° N
SPOT 1/Viking Rocket 4.3 21:51:06 14° ESE 21:55:00 37° NE 21:59:47 10° N
Cosmos 1269 Rocket 4.4 21:49:53 10° NW 21:55:09 68° WSW 22:00:24 10° SSE
USA 267 3.6 21:49:22 12° SE 21:55:18 58° SSW 22:01:46 10° W
Cosmos 1674 2.6 21:55:17 10° NNW 21:59:04 88° ENE 22:02:51 10° SSE
Helios 1B rocket 2.5 21:55:53 10° NNE 21:59:58 53° ESE 22:04:02 10° S
SPOT 5 3.4 21:56:19 14° SE 22:00:50 50° ENE 22:05:57 10° NNW
Cosmos 2298 Rocket 4.0 21:55:39 10° SSW 22:00:58 83° ESE 22:06:21 10° NNE
Tsikada Rocket 4.4 21:56:53 10° N 22:02:47 44° ENE 22:07:31 16° SE
Cosmos 2100 Rocket 4.3 22:02:23 10° SSE 22:08:24 47° E 22:14:28 10° NNE
Cosmos 2098 Rocket 4.4 22:01:29 10° S 22:08:49 68° E 22:16:19 10° NNE
Cosmos 1605 Rocket 4.0 22:02:39 10° S 22:08:58 84° E 22:15:25 10° NNE
Cosmos 1844 3.7 22:03:34 10° SSW 22:09:20 71° ESE 22:15:08 10° NE
Cosmos 1805 3.1 22:05:35 10° S 22:09:28 70° E 22:13:23 10° NNE
Cosmos 1340 Rocket 2.8 22:06:30 10° NNW 22:10:36 83° ENE 22:14:10 13° SSE
Helios 1A 4.3 22:07:56 10° S 22:11:54 41° W 22:15:55 10° NNW
BREEZE-M DEB (TANK) 4.5 22:12:14 10° SSW 22:12:52 11° S 22:13:09 11° S
Cosmos 1437 Rocket 3.8 22:09:05 10° SW 22:13:03 52° WNW 22:17:06 10° N
Coronas F rocket 3.0 22:13:22 10° NNE 22:14:25 16° NE 22:14:25 16° NE
ARGOS 3.3 22:11:15 17° SE 22:15:18 56° ENE 22:20:34 10° NNW
Cosmos 1743 Rocket 3.5 22:11:15 10° N 22:15:41 71° ENE 22:19:16 15° SSE
Cosmos-2242 3.3 22:12:22 10° SSE 22:16:24 43° E 22:20:27 10° NNE
Cosmos 1500 Rocket 3.6 22:14:11 10° N 22:18:31 59° ENE 22:21:21 20° SSE
Lacrosse 4 Rocket 1.2 22:16:07 10° SW 22:20:10 74° SE 22:24:16 10° NE
Cosmos 2297 Rocket 3.9 22:15:31 10° NW 22:20:15 26° N 22:25:00 10° ENE
MetOp-A 4.1 22:15:59 14° SSE 22:20:36 75° ENE 22:25:58 10° NNW
Elektron 1 3.9 22:19:01 10° W 22:21:55 69° N 22:23:39 23° E
Cosmos 1470 3.1 22:19:38 15° SSE 22:22:36 43° E 22:26:24 10° NNE
Cosmos 1802 Rocket 4.2 22:20:07 10° SSE 22:25:58 49° E 22:31:54 10° NNE
H-2A R/B 2.8 22:24:39 24° ESE 22:26:20 35° ENE 22:30:05 10° N
CZ-4 DEB 3.4 22:31:03 28° ENE 22:31:03 28° ENE 22:33:15 10° N
YAOGAN 6 2.9 22:29:34 15° S 22:32:34 69° WSW 22:36:20 10° NNW
Terra 2.7 22:30:48 24° ESE 22:32:53 34° ENE 22:37:11 10° N
Cosmos 2221 4.1 22:34:13 18° ENE 22:34:13 18° ENE 22:37:01 10° NE
Cosmos 2061 Rocket 4.1 22:28:05 10° S 22:34:21 59° E 22:40:40 10° NNE
Cosmos 1758 3.3 22:30:42 10° SSW 22:34:42 82° WNW 22:38:45 10° NNE
USA 186 4.5 22:34:54 10° WSW 22:35:23 10° W 22:35:53 10° WNW
Cosmos 372 Rocket 4.3 22:34:20 10° S 22:39:10 43° ESE 22:44:03 10° NE
Cosmos 1626 2.8 22:38:33 10° N 22:42:06 38° ENE 22:42:52 34° E
Cosmos 1939 Rocket 4.2 22:38:22 10° SSW 22:42:16 39° W 22:46:13 10° NNW
Cosmos 1328 3.8 22:38:16 10° NNW 22:42:18 86° W 22:44:35 25° S
Cosmos 1953 2.6 22:40:49 10° SSW 22:44:54 72° WNW 22:48:59 10° N
SL-14 R/B 3.1 22:41:58 10° NNW 22:45:50 88° W 22:47:44 29° SSE
Cosmos 2227 Rocket 3.8 22:41:13 10° NW 22:46:06 28° NNE 22:50:59 10° ENE
Cosmos 1733 3.1 22:43:56 20° S 22:46:30 67° E 22:50:23 10° NNE
H-2A R/B 2.2 22:47:47 28° SE 22:50:38 65° ENE 22:55:54 10° NNW
Cosmos 1844 Rocket 3.2 22:46:29 10° SW 22:52:07 64° NW 22:57:44 10° NE
Cosmos 494 Rocket 4.2 22:47:10 10° NW 22:52:18 68° WSW 22:55:21 24° SSE
Cosmos 1833 Rocket 4.0 22:47:39 10° NW 22:52:40 34° WSW 22:57:41 10° S
NOSS 2-1 (D) 4.4 22:50:55 10° W 22:55:23 59° N 23:00:59 11° ENE
NOSS 2-1 (C) 4.4 22:51:16 10° W 22:55:44 59° N 23:01:22 11° ENE
IGS 5A 4.1 22:56:24 35° E 22:57:19 40° ENE 23:01:13 10° N
Cosmos 1842 Rocket 3.7 22:56:52 36° SSE 22:58:18 52° E 23:02:35 10° NNE
USA 215 3.7 22:54:29 10° ENE 23:00:30 37° SE 23:06:29 10° SSW
Cosmos 1184 Rocket 3.7 22:57:13 10° NNW 23:00:31 47° W 23:02:02 27° SSW
Meteor 1-29 3.9 22:57:26 10° N 23:00:49 49° WNW 23:04:10 10° SW
NOAA 11 4.4 22:57:00 18° S 23:01:08 69° WSW 23:06:40 10° NNW
Lacrosse 5 rocket 3.0 22:58:25 10° W 23:01:17 19° SW 23:02:18 17° SSW
Cosmos 1356 Rocket 3.7 22:57:19 10° NNW 23:01:29 64° W 23:03:37 27° S
Cosmos 2278 Rocket 2.2 22:56:11 10° SW 23:01:53 89° SE 23:07:37 10° NE
Meteor 1-11 4.3 22:56:51 10° NNW 23:02:28 78° WSW 23:06:04 23° S
Meteor 1-4 Rocket 3.3 23:00:15 10° SW 23:03:40 50° WNW 23:07:06 10° N
MOS 1-B Rocket 4.4 22:58:54 22° SSE 23:04:19 84° ENE 23:11:04 10° NNW
Geosat 4.1 23:01:35 10° NE 23:06:39 77° NW 23:11:41 10° SW
Cosmos 1459 Rocket 3.9 23:01:43 10° SSW 23:07:59 89° W 23:14:12 10° NNE
CZ-3B DEB 2.3 23:01:57 10° SW 23:08:26 37° SSE 23:08:40 37° SSE
Cosmos 1125 Rocket 3.4 23:04:52 10° SSW 23:10:04 80° ESE 23:15:21 10° NNE
Cosmos 2173 Rocket 4.0 23:04:05 10° SSW 23:10:18 88° W 23:16:40 10° NNE
PSLV R/B 3.9 23:10:56 39° NNE 23:10:56 39° NNE 23:13:14 10° N
Cosmos 2233 Rocket 4.4 23:10:44 34° SE 23:12:39 43° E 23:18:24 10° NNE
Cosmos 2297 3.6 23:08:46 10° SSW 23:14:26 66° ESE 23:20:10 10° NE
Cosmos 1271 Rocket 2.9 23:13:39 18° SSW 23:16:35 76° WNW 23:20:39 10° NNE
Cosmos 2263 Rocket 4.0 23:13:46 10° W 23:18:43 30° NNW 23:23:40 10° NE
CZ-4C R/B 4.2 23:18:02 38° E 23:18:46 41° ENE 23:22:57 10° N
Cosmos 1703 3.2 23:15:38 10° NNW 23:19:38 90° ENE 23:20:21 59° SSE
Cosmos 2151 3.4 23:15:47 10° NNW 23:20:01 58° W 23:21:50 31° SSW
Cosmos 2219 3.9 23:15:35 10° NW 23:21:03 45° NE 23:23:30 29° E
Cosmos 2082 Rocket 4.2 23:17:45 10° NW 23:22:02 22° WSW 23:26:17 10° SSW
ATLAS 5 CENTAUR R/B 4.1 23:29:04 13° ENE 23:29:04 13° ENE 23:29:44 10° ENE
SL-08 RB Rocket 4.1 23:23:49 32° S 23:25:53 62° WSW 23:30:34 10° NNW
Cosmos 1943 Rocket 4.4 23:28:43 10° ENE 23:28:43 10° ENE 23:28:50 10° ENE
Meteor 2-1 Rocket 4.3 23:27:45 41° SE 23:29:20 54° E 23:34:51 10° NNE
Cosmos 2058 3.4 23:25:51 10° NNW 23:29:58 56° W 23:31:19 37° SSW
CARTOSAT-1 3.5 23:29:59 60° SE 23:30:42 77° ENE 23:35:03 10° NNW
Cosmos 1666 Rocket 3.4 23:27:18 10° N 23:31:41 69° ENE 23:32:10 62° ESE
Cosmos 2084 Rocket 3.5 23:29:07 10° W 23:32:59 63° NNW 23:34:16 37° NE
Cosmos 389 Rocket 3.2 23:35:04 43° NE 23:35:04 43° NE 23:37:38 10° NNE
SPOT 1/Viking Rocket 4.0 23:31:43 29° S 23:34:16 59° WSW 23:39:27 10° NNW
ALOS 2 4.3 23:34:08 21° ENE 23:34:46 21° NE 23:38:05 10° N
Meteor 1-16 Rocket 4.2 23:31:01 23° S 23:34:52 84° ESE 23:40:51 10° NNE
Helios 1B rocket 4.4 23:31:30 10° N 23:35:08 30° WNW 23:38:45 10° WSW
Lacrosse 5 2.3 23:31:20 10° SW 23:35:19 42° S 23:35:19 42° S
Sich 1 2.9 23:33:16 10° NNW 23:37:42 75° ENE 23:38:10 66° SE
Cosmos 1633 Rocket 3.0 23:33:41 10° N 23:38:08 68° ENE 23:38:33 63° ESE
SPOT 5 4.1 23:35:34 20° SSW 23:39:00 43° W 23:44:05 10° NNW
USA 267 4.4 23:36:42 23° S 23:39:17 30° SW 23:44:57 10° WNW
CZ-2C R/B 4.4 23:40:12 22° ENE 23:41:20 24° NE 23:45:11 10° N
Cosmos 2016 Rocket 4.1 23:35:41 12° SSW 23:41:32 76° WNW 23:47:43 10° NNE
Cosmos 1933 Rocket 4.1 23:37:56 10° N 23:42:07 42° ENE 23:42:10 42° ENE
Coronas F rocket 4.2 23:43:22 10° NW 23:44:00 15° NW 23:44:00 15° NW
Cosmos 1725 Rocket 3.9 23:43:49 26° SSW 23:47:33 89° WNW 23:53:48 10° NNE
Timation 1 Rocket 4.4 23:43:22 10° SW 23:49:25 83° NW 23:55:29 10° NE
Cosmos 1464 Rocket 4.4 23:53:28 40° ESE 23:54:09 42° E 23:59:59 10° NNE
CZ-4B R/B 4.3 23:54:19 11° NE 23:54:25 11° NE 23:55:32 10° NNE
Landsat 7 4.3 23:53:55 42° SSW 23:55:12 56° WSW 23:59:56 10° NNW
